Simultaneous Nadir Overpasses (SNOs) Predictions

Prediction of SNOs between GOES-16 and METOP-A Satellite Orbit:

Table of predicted SNOs for the next 14.0 days since TLE Epoch: 2/11/2022
Index Date Time (GOES-16) GOES-16 Lat,Lon METOP-A Lat,Lon Distance(km) Time Diff (sec)
1 02/12/2022 01:20:40 0.01, -75.18 -0.64, -78.23 347.46 80
2 02/14/2022 13:02:31 -0.00, -75.20 -0.19, -74.36 95.56 80
3 02/15/2022 01:22:20 -0.00, -75.18 -0.72, -78.50 377.57 80
4 02/17/2022 00:48:29 -0.01, -75.19 0.95, -70.85 493.41 80
5 02/17/2022 13:04:20 0.01, -75.22 -0.09, -74.66 62.49 80
6 02/18/2022 01:24:00 -0.02, -75.19 -0.75, -78.76 405.49 80
7 02/20/2022 00:50:07 -0.02, -75.21 0.86, -71.10 466.73 80
8 02/20/2022 13:06:10 0.02, -75.24 -0.04, -74.97 30.79 80
9 02/21/2022 01:25:37 -0.02, -75.22 -0.82, -79.02 431.70 80
10 02/23/2022 00:51:44 -0.01, -75.24 0.79, -71.35 441.17 80
11 02/23/2022 13:07:58 0.02, -75.27 0.02, -75.27 0.17 80
12 02/24/2022 01:27:14 -0.02, -75.25 -0.87, -79.27 457.06 80
